Regional Weather Roundup
Issued by NWS

Home | Current Version | Previous Version | Graphics & Text | Print | Product List | Glossary On
Versions: 1 2 3 4 5 6 7 8 9 10 11 12 13 14 15 16 17 18 19 20 21 22 23 24 25 26 27 28 29 30 31 32 33 34 35 36 37 38 39 40 41 42 43 44 45 46 47 48 49 50
000
ASUS45 KBOI 061510
RWRID

IDAHO REGIONAL WEATHER ROUNDUP
NATIONAL WEATHER SERVICE BOISE ID
900 AM MDT MON JUL 06 2015

NOTE: "FAIR" INDICATES FEW OR NO CLOUDS BELOW 12000 FEET
WITH NO SIGNIFICANT WEATHER AND/OR OBSTRUCTIONS TO VISIBILITY

IDZ012-014-061600-
SOUTHWEST IDAHO


CITY           SKY/WX    TMP DP  RH WIND       PRES   REMARKS
BOISE          MOSUNNY   76  52  43 SE6       30.06R
CALDWELL       MOSUNNY   75  52  43 CALM      30.06R
MOUNTAIN HOME  MOSUNNY   74  53  46 SE7       30.07R
$$

IDZ016-017-061600-
SOUTHCENTRAL IDAHO


CITY           SKY/WX    TMP DP  RH WIND       PRES   REMARKS
BURLEY         PTSUNNY   69  57  65 CALM      30.13R
JEROME         CLOUDY    69  54  58 E3        30.14R
TWIN FALLS     PTSUNNY   77  50  38 SW10      30.12R
$$

IDZ019>023-061600-
SOUTHEAST IDAHO


CITY           SKY/WX    TMP DP  RH WIND       PRES   REMARKS
IDAHO FALLS    CLOUDY    60  55  83 N10       30.19R
POCATELLO      CLOUDY    68  57  68 W6        30.17R
REXBURG        CLOUDY    62  53  72 NE7       30.20R
$$

IDZ006-010-011-018-031-032-061600-
CENTRAL IDAHO MOUNTAINS


CITY           SKY/WX    TMP DP  RH WIND       PRES   REMARKS
MCCALL         SUNNY     64  51  62 CALM      30.17R
HAILEY         PTSUNNY   59  54  82 NW6       30.22R
STANLEY          N/A     55  43  63 CALM      30.29S
SALMON         SUNNY     64  48  55 CALM      30.16F
CHALLIS        MOSUNNY   67  45  45 CALM      30.20R
$$

IDZ002-004-006-007-026-061600-
NORTHERN IDAHO


CITY           SKY/WX    TMP DP  RH WIND       PRES   REMARKS
LEWISTON       SUNNY     73  51  46 NE5       30.01S
LOWELL           N/A     68  55  63 CALM      30.05S
COEUR D`ALENE  SUNNY     64  45  48 N12       30.09S
MULLAN PASS    SUNNY     50  42  74 SE6       30.23S
$$


USA.gov is the U.S. government's official web portal to all federal, state and local government web resources and services.